Regional Weather Roundup
Issued by NWS Little Rock, AR

Home | Current Version | Previous Version | Graphics & Text | Print | Product List | Glossary On
Versions: 1 2 3 4 5 6 7 8 9 10 11 12 13 14 15 16 17 18 19 20 21 22 23 24 25 26 27 28 29 30 31 32 33 34 35 36 37 38 39 40 41 42 43 44 45 46 47 48 49 50
000
ASUS44 KLZK 230705
RWRLZK

WEATHER ROUNDUP FOR ARKANSAS
NATIONAL WEATHER SERVICE LITTLE ROCK AR
200 AM CDT TUE MAY 23 2017

NOTE: "FAIR" INDICATES FEW OR NO CLOUDS BELOW 12,000 FEET WITH NO
SIGNIFICANT WEATHER AND/OR OBSTRUCTIONS TO VISIBILITY.

ARZ001-003-010-029-230800-
NORTHWEST ARKANSAS

CITY           SKY/WX    TMP DP  RH WIND       PRES   REMARKS
FAYETTEVILLE   CLOUDY    60  55  83 S3        29.90F
FORT SMITH     CLOUDY    65  60  84 SW5       29.87F
HARRISON       PTCLDY    57  53  86 SE3       29.89F
BENTONVILLE    CLOUDY    63  55  77 W6        29.90F
ROGERS         CLOUDY    63  57  81 W6        29.90F
SILOAM SPGS    CLOUDY    63  54  72 W5        29.90F
$$

ARZ004-005-016-230800-
NORTH CENTRAL ARKANSAS

CITY           SKY/WX    TMP DP  RH WIND       PRES   REMARKS
BATESVILLE     CLOUDY    57  54  88 CALM      29.88F
FLIPPIN        PTCLDY    59  48  67 CALM      29.86F
MTN HOME       CLOUDY    59  53  80 CALM      29.88F
$$

ARZ040-041-230800-
WEST CENTRAL ARKANSAS

CITY           SKY/WX    TMP DP  RH WIND       PRES   REMARKS
MENA           CLOUDY    63  61  94 SW3       29.93S
MOUNT IDA      CLOUDY    57  55  93 CALM      29.88F
$$

ARZ009-017-025-026-028-230800-
NORTHEAST ARKANSAS

CITY           SKY/WX    TMP DP  RH WIND       PRES   REMARKS
JONESBORO      MOCLDY    57  55  93 CALM      29.87F
NEWPORT        MOCLDY    61  58  90 SW3       29.88F
WALNUT RIDGE   PTCLDY    63  55  77 E5        29.87F
BLYTHEVILLE    CLOUDY    65  60  84 CALM      29.87F
$$

ARZ022-023-033-042-044-230800-
CENTRAL ARKANSAS

CITY           SKY/WX    TMP DP  RH WIND       PRES   REMARKS
LITTLE ROCK    CLOUDY    61  60  97 CALM      29.88F
N LITTLE ROCK    N/A     59  56  89 CALM      29.88F
JACKSONVILLE   PTCLDY    57  57  99 CALM      29.87F
CONWAY           N/A     61  59  94 CALM      29.87S
SEARCY         PTCLDY    57  57 100 CALM      29.89F
HOT SPRINGS    CLOUDY    60  59  96 NW3       29.89F
RUSSELLVILLE   CLOUDY    60  55  83 CALM      29.88F
CLINTON        FAIR      55  54  94 CALM      29.89F
$$

ARZ036-230800-
EAST ARKANSAS

CITY           SKY/WX    TMP DP  RH WIND       PRES   REMARKS
WEST MEMPHIS   CLOUDY    63  61  93 CALM      29.86F
$$

ARZ050-053-066-070-073-230800-
SOUTHWEST ARKANSAS

CITY           SKY/WX    TMP DP  RH WIND       PRES   REMARKS
ARKADELPHIA      N/A     62  60  93 CALM      29.90F
CAMDEN         CLOUDY    63  59  88 CALM      29.89F
TEXARKANA      PTCLDY    59  58  96 N5        29.91F
EL DORADO      CLOUDY    62  61  96 NW3       29.90F
DE QUEEN       CLOUDY    61  58  90 CALM      29.93S
$$

ARZ056-057-069-230800-
SOUTHEAST ARKANSAS

CITY           SKY/WX    TMP DP  RH WIND       PRES   REMARKS
PINE BLUFF     CLOUDY    64  61  90 CALM      29.89F
STUTTGART      CLOUDY    66  52  59 SW3       29.89F
MONTICELLO     CLOUDY    63  60  90 CALM      29.88F

$$





USA.gov is the U.S. government's official web portal to all federal, state and local government web resources and services.